RH
88 79 80 82 85 90 92 95 75 65 76 66 81 83 80 77 69 68 60 70 90 91 94 95 94 94 94 93 93 93 92 91 90
83 74 78 82 86 93 90 75 62 62 70 65 66 70 65 61 50 51 63 82 90 92 94 95 96 95 95 96 94 94 93 93 93
84 77 80 78 82 77 68 57 51 62 66 67 65 66 65 52 48 56 68 87 92 92 86 80 88 96 95 95 95 94 94 94 95
87 78 82 62 94 62 47 39 42 60 65 67 67 66 68 56 48 52 61 82 92 78 70 74 77 78 77 82 89 86 81 88 92
86 78 75 59 74 60 49 42 46 58 64 69 69 68 70 70 65 53 56 68 83 69 68 70 70 72 72 73 75 75 78 76 73
82 79 71 64 79 66 58 51 50 54 61 68 71 70 68 70 70 62 57 65 72 66 68 70 70 72 72 70 70 75 73 71 70
87 78 68 79 80 76 69 64 56 55 56 64 69 69 68 68 70 67 64 62 71 69 71 72 73 76 74 73 73 68 67 65 67
85 78 73 82 80 79 73 74 69 58 53 56 62 63 60 58 61 64 62 58 75 71 73 76 76 77 78 79 75 72 68 68 71
85 76 76 72 79 78 74 70 65 59 55 49 46 57 57 57 56 58 58 56 62 82 72 74 77 75 74 76 76 76 74 72 69
86 74 72 77 82 82 78 75 68 64 60 60 57 58 59 59 57 56 57 60 62 64 68 71 73 70 72 72 75 76 74 74 64
83 77 74 78 79 81 83 80 74 68 63 59 57 58 60 60 56 56 57 60 64 64 62 65 69 71 71 70 74 73 73 73 61
79 81 78 79 79 81 88 85 79 70 63 60 56 56 59 60 60 58 57 60 63 63 63 63 65 70 73 73 80 79 82 76 58
84 84 81 80 83 84 85 84 80 67 65 62 58 56 59 62 61 60 59 59 62 63 65 64 67 72 74 74 81 91 89 75 60
91 87 86 81 85 86 86 85 74 69 68 65 61 59 62 62 60 60 60 59 60 63 64 67 68 68 71 71 85 96 89 75 62
96 92 89 84 86 86 86 80 75 72 67 67 66 64 62 63 64 62 61 61 61 66 64 65 62 69 64 74 90 96 88 74 65
94 96 90 87 88 80 79 75 72 72 69 68 67 65 63 64 63 65 62 62 63 64 66 63 63 67 62 87 96 85 78 80 81
92 94 87 88 89 82 75 72 74 73 68 72 75 83 73 69 69 68 66 64 65 66 65 59 72 73 76 88 82 78 72 89 91
85 91 90 82 75 75 72 70 76 71 70 70 69 92 90 81 75 74 73 72 71 71 65 66 70 78 79 90 90 80 81 86 88
88 93 88 77 71 70 67 72 73 73 74 77 74 80 74 87 88 78 78 83 82 76 72 64 68 80 80 80 81 81 81 81 86
87 93 82 71 67 66 68 76 76 77 80 84 91 96 98 92 88 94 94 86 85 82 75 73 75 80 87 85 86 86 85 84 92
Wind_Speed
20 19 19 19 18 17 16 17 18 15 12 11 14 13 12 9 8 8 9 11 11 11 12 12 12 12 12 12 12 12 13 13 13
23 22 21 19 18 17 17 19 18 15 11 10 13 12 8 6 8 9 10 11 10 10 10 10 10 11 11 11 11 11 11 12 12
24 23 19 17 18 17 17 18 18 15 12 10 11 10 8 8 8 9 9 10 9 9 8 9 9 9 9 9 9 10 10 10 10
23 23 19 17 17 18 18 17 19 16 12 10 9 9 7 7 7 7 8 7 7 7 7 7 7 8 8 8 8 9 9 9 9
23 22 19 18 18 18 18 17 17 16 13 9 8 8 7 6 6 5 5 6 5 5 6 5 5 6 7 7 7 6 7 7 7
24 24 20 20 19 18 17 17 17 15 14 11 9 8 7 7 5 4 3 3 3 3 4 4 4 4 4 5 5 5 5 5 6
26 24 22 22 20 17 17 16 15 15 14 14 11 9 7 8 7 5 4 4 4 3 2 2 1 1 1 2 3 3 3 3 5
28 26 23 23 20 19 18 18 17 15 14 15 14 11 8 7 9 8 6 5 6 5 3 3 2 2 3 3 2 2 2 3 5
33 30 27 26 24 22 20 18 18 17 15 13 14 13 11 9 10 8 7 5 6 7 5 5 5 5 5 6 6 5 4 4 5
35 33 32 30 27 24 23 20 19 17 16 14 14 13 12 11 11 11 9 7 6 6 6 5 6 6 6 7 8 7 6 5 3
37 34 34 31 30 26 24 22 20 18 17 16 15 15 13 13 14 14 12 11 8 6 6 6 7 8 7 8 9 8 7 4 2
40 34 34 32 31 27 25 22 20 20 19 18 17 16 14 15 15 16 17 16 12 9 8 8 9 10 10 8 9 9 7 5 4
39 36 37 37 32 29 28 25 23 21 20 19 18 18 16 17 17 18 19 20 17 14 13 12 12 11 12 10 9 10 8 7 6
39 38 36 37 35 33 30 27 25 23 21 20 19 19 19 19 18 19 20 20 15 16 14 13 11 12 10 10 9 11 9 8 6
34 30 32 38 37 35 32 31 27 25 23 20 20 19 19 19 19 20 18 18 16 16 12 12 11 9 8 5 10 12 8 7 7
37 30 33 37 39 37 35 32 28 27 21 17 18 18 18 19 20 21 21 21 19 15 13 10 9 7 5 7 12 9 7 8 8
39 35 35 40 37 36 35 33 27 28 24 13 4 2 7 15 15 19 21 21 19 17 14 10 9 6 6 10 11 12 10 7 7
42 43 39 40 36 37 35 34 31 24 25 21 7 2 4 2 10 18 20 21 21 18 14 12 10 9 10 12 12 10 11 10 8
39 41 42 39 39 36 33 34 31 25 24 24 21 8 2 3 2 6 17 19 19 20 17 15 12 13 13 13 12 12 10 7 5
38 40 37 38 37 36 35 33 31 30 22 20 10 16 9 6 2 2 4 15 21 21 18 17 16 15 15 12 11 10 8 7 4
Wind_Direction
159 160 155 152 150 149 149 146 139 131 127 118 126 134 129 126 124 123 106 98 99 94 89 86 84 80 76 73 70 68 65 64 64
166 165 168 167 168 156 153 151 147 139 132 128 136 136 133 132 125 120 115 106 100 97 94 89 85 81 78 75 73 72 70 67 67
175 170 176 177 163 157 158 159 155 149 142 133 144 135 118 123 125 122 115 113 109 102 96 89 82 77 74 73 75 75 72 70 67
181 176 179 173 165 161 162 162 161 159 154 146 144 151 130 121 123 126 122 119 120 110 97 87 80 77 73 71 68 65 65 63 61
184 181 181 180 174 167 165 164 166 166 163 160 159 163 161 149 130 130 132 135 134 119 106 93 79 72 75 71 68 64 60 59 56
187 183 183 181 180 177 172 170 171 172 174 173 171 166 177 179 170 154 150 162 158 141 123 106 84 73 75 67 58 62 63 55 49
190 186 185 185 184 187 186 181 179 180 183 184 187 190 193 202 202 198 192 200 197 196 169 136 95 65 54 47 38 41 57 40 35
190 187 189 190 198 199 198 194 191 190 190 192 196 203 207 211 213 212 212 214 219 227 238 245 265 304 300 316 316 317 344 353 358
194 196 193 200 201 198 198 197 195 195 198 201 204 207 215 221 219 217 214 224 227 239 250 267 275 289 297 293 286 283 288 299 334
200 197 196 203 205 202 201 203 206 206 206 208 208 214 225 230 228 225 223 220 228 240 250 246 265 286 296 286 273 268 273 282 321
200 197 199 207 212 209 207 208 212 217 218 219 223 221 231 237 229 229 228 223 224 230 233 247 261 278 286 291 269 262 254 240 270
203 201 201 208 211 213 210 214 220 223 223 229 232 229 236 234 235 237 234 230 224 225 231 244 260 274 282 286 269 240 224 223 240
203 202 203 207 210 212 216 219 224 220 225 235 235 233 238 236 242 241 242 237 231 232 239 249 257 266 275 273 265 227 207 217 234
210 207 205 209 212 216 220 222 222 224 229 231 232 235 237 239 238 238 242 237 231 240 245 238 257 270 274 275 243 199 203 214 236
211 211 205 211 216 219 221 221 221 228 231 232 238 237 237 241 247 246 235 222 229 234 226 238 256 260 275 257 191 180 206 224 245
205 213 209 217 219 220 219 218 222 225 225 224 234 239 243 245 252 238 220 216 212 219 229 239 238 238 247 193 184 206 242 236 259
200 214 216 223 219 217 217 218 217 224 218 206 178 222 247 243 235 223 215 210 210 213 218 221 221 229 205 189 209 228 244 252 267
199 213 217 221 219 214 216 218 216 217 217 210 184 150 217 170 225 219 216 215 211 209 209 205 211 220 211 206 213 228 252 269 284
203 214 218 219 219 219 219 222 226 220 215 216 222 230 167 178 230 222 220 217 213 211 207 203 207 214 213 219 226 237 245 253 286
210 215 216 218 220 224 224 227 225 219 219 204 209 237 244 239 155 194 198 216 218 222 214 212 209 211 216 220 231 241 239 240 245